Location: Rayville
(42.4642°N, 73.5384°W)
Time: 22:48:18
(UTC+00:00)

ISS - Pass Details

Date: 23 October 2024
Orbit: 407 x 418 km, 51.6° (Epoch: 13 November)

Event Time Altitude Azimuth Distance (km) Brightness Sun altitude
Exits shadow 09:48:30 26° 333° (NNW) 840 -2.5 -17.0°
Maximum altitude 09:48:41 26° 340° (NNW) 836 -2.5 -17.0°
Drops below altitude 10° 09:51:32 10° 40° (NE) 1,471 -0.5 -16.4°
Sets 09:53:50 0° 53° (NE) 2,333 0.9 -16.0°
